Juneau, WI

4:32 AM CST on December 10, 2019 (GMT -0600)
Dodge County

Weather History for KUNU - October, 2019

Change the Weather History Date:

Monday, October 28, 2019

  Actual Average Record
Temperature  
Mean Temperature 40 °F -  
Max Temperature 42 °F 52 °F 69 °F (1974)
Min Temperature 34 °F 38 °F 20 °F (1988)
Degree Days  
Heating Degree Days 26    
Moisture  
Dew Point 34 °F    
Average Humidity 78    
Maximum Humidity 86    
Minimum Humidity 69    
Precipitation  
Precipitation 0.00 in - - ()
Sea Level Pressure  
Sea Level Pressure 30.04 in    
Wind  
Wind Speed 0 mph ()    
Max Wind Speed 9 mph    
Max Gust Speed 16 mph    
Visibility 9.8 miles    
Events Snow    
Averages and records for this station are not official NWS values.
T = Trace of Precipitation, MM = Missing Value Source: Averaged Metar Reports

Daily Weather History Graph

Daily Weather History Graph

Search for Another Location

Airport or City:

Astronomy

Oct. 28, 2019 Rise Set
Actual Time 7:24 AM CDT 5:51 PM CDT
Civil Twilight 6:55 AM CDT 6:21 PM CDT
Nautical Twilight 6:21 AM CDT 6:54 PM CDT
Astronomical Twilight 5:48 AM CDT 7:27 PM CDT
Moon 7:45 AM CDT (10/28) 6:36 PM CDT (10/28)
Length of Visible Light 11h 26m
Length of Day
10h 27m
New Moon, 0% of the Moon is Illuminated
Oct 28
New Moon
Nov 4
First Quarter
Nov 12
Full
Nov 19
Last Quarter
Nov 26
New

Hourly Weather History & Observations

Time (CDT) Temp. Windchill Dew Point Humidity Pressure Visibility Wind Dir Wind Speed Gust Speed Precip Events Conditions
12:15 AM 42.8 °F - 36.9 °F 80% 29.97 in 10.0 mi Calm Calm - N/A   Overcast
12:35 AM 42.1 °F - 36.9 °F 82% 29.97 in 10.0 mi Calm Calm - N/A   Mostly Cloudy
12:55 AM 41.2 °F - 37.0 °F 85% 29.98 in 10.0 mi Calm Calm - N/A   Scattered Clouds
1:15 AM 41.4 °F - 37.4 °F 86% 29.99 in 10.0 mi Calm Calm - N/A   Mostly Cloudy
1:35 AM 41.2 °F - 37.0 °F 85% 29.99 in 10.0 mi Calm Calm - N/A   Scattered Clouds
1:55 AM 40.6 °F - 36.7 °F 86% 29.99 in 10.0 mi Calm Calm - N/A   Clear
2:15 AM 40.3 °F - 36.1 °F 85% 30.00 in 10.0 mi Calm Calm - N/A   Clear
2:35 AM 39.7 °F - 35.8 °F 86% 30.00 in 10.0 mi Calm Calm - N/A   Clear
2:55 AM 39.7 °F - 35.8 °F 86% 30.00 in 10.0 mi Calm Calm - N/A   Mostly Cloudy
3:15 AM 39.7 °F - 35.6 °F 85% 30.00 in 10.0 mi Calm Calm - N/A   Overcast
3:35 AM 39.7 °F - 35.4 °F 85% 30.00 in 10.0 mi Calm Calm - N/A   Overcast
3:55 AM 39.7 °F - 35.4 °F 85% 30.00 in 10.0 mi Calm Calm - N/A   Overcast
4:15 AM 39.6 °F - 35.2 °F 85% 30.01 in 10.0 mi Calm Calm - N/A   Overcast
4:35 AM 39.7 °F - 35.6 °F 85% 30.01 in 10.0 mi Calm Calm - N/A   Overcast
4:55 AM 39.6 °F - 35.4 °F 85% 30.01 in 10.0 mi Calm Calm - N/A   Overcast
5:15 AM 39.4 °F - 35.6 °F 86% 30.01 in 10.0 mi Calm Calm - N/A   Overcast
5:35 AM 39.6 °F - 35.2 °F 85% 30.01 in 10.0 mi Calm Calm - N/A   Overcast
5:55 AM 39.7 °F - 34.7 °F 82% 30.02 in 10.0 mi Calm Calm - N/A   Overcast
6:15 AM 39.7 °F - 34.7 °F 82% 30.03 in 10.0 mi Calm Calm - N/A   Overcast
6:35 AM 39.6 °F - 34.3 °F 82% 30.03 in 10.0 mi Calm Calm - N/A   Overcast
7:15 AM 39.6 °F - 33.8 °F 80% 30.03 in 10.0 mi Calm Calm - N/A   Overcast
7:35 AM 39.4 °F - 34.7 °F 83% 30.04 in 10.0 mi Calm Calm - N/A   Overcast
7:55 AM 39.2 °F - 34.7 °F 84% 30.05 in 10.0 mi Calm Calm - N/A   Overcast
8:15 AM 39.4 °F - 33.6 °F 80% 30.06 in 10.0 mi Calm Calm - N/A   Overcast
8:35 AM 39.2 °F - 34.0 °F 82% 30.06 in 10.0 mi Calm Calm - N/A   Overcast
8:55 AM 39.2 °F - 33.8 °F 81% 30.06 in 10.0 mi Calm Calm - N/A   Overcast
9:15 AM 39.2 °F 35.0 °F 33.3 °F 79% 30.07 in 10.0 mi WNW 5.8 mph - N/A   Overcast
9:35 AM 39.2 °F - 32.9 °F 78% 30.07 in 10.0 mi Calm Calm - N/A   Overcast
9:55 AM 39.2 °F 35.9 °F 32.9 °F 78% 30.07 in 10.0 mi WNW 4.6 mph - N/A   Overcast
10:15 AM 39.2 °F - 32.9 °F 78% 30.07 in 10.0 mi Calm Calm - N/A   Overcast
10:35 AM 39.6 °F - 32.9 °F 77% 30.07 in 10.0 mi Calm Calm - N/A   Overcast
10:55 AM 39.6 °F - 32.9 °F 77% 30.07 in 10.0 mi Calm Calm - N/A   Overcast
11:15 AM 39.7 °F - 32.4 °F 75% 30.07 in 10.0 mi Calm Calm - N/A   Overcast
12:55 PM 40.5 °F - 32.0 °F 72% 30.06 in 10.0 mi Calm Calm - N/A   Overcast
1:15 PM 40.5 °F - 32.0 °F 72% 30.06 in 10.0 mi Calm Calm - N/A   Overcast
1:35 PM 41.0 °F - 32.0 °F 70% 30.06 in 10.0 mi Calm Calm - N/A   Overcast
1:55 PM 41.7 °F 39.8 °F 32.2 °F 69% 30.05 in 10.0 mi WSW 3.5 mph - N/A   Overcast
2:15 PM 41.4 °F - 31.8 °F 69% 30.05 in 10.0 mi Calm Calm - N/A   Overcast
2:35 PM 41.2 °F - 32.0 °F 70% 30.06 in 10.0 mi Calm Calm - N/A   Overcast
2:55 PM 41.4 °F - 32.0 °F 69% 30.06 in 10.0 mi Calm Calm - N/A   Overcast
3:15 PM 41.5 °F - 33.3 °F 72% 30.05 in 10.0 mi Calm Calm - N/A   Overcast
3:35 PM 41.4 °F - 32.7 °F 71% 30.05 in 10.0 mi Calm Calm - N/A   Overcast
3:55 PM 41.4 °F - 32.2 °F 70% 30.05 in 10.0 mi Calm Calm - N/A   Overcast
4:55 PM 41.4 °F - 33.1 °F 72% 30.05 in 10.0 mi Calm Calm - N/A   Overcast
5:15 PM 41.4 °F - 33.1 °F 72% 30.04 in 10.0 mi Calm Calm - N/A   Overcast
5:35 PM 41.4 °F - 33.1 °F 72% 30.04 in 10.0 mi Calm Calm - N/A   Overcast
5:55 PM 41.2 °F - 33.6 °F 74% 30.05 in 10.0 mi Calm Calm - N/A   Overcast
6:15 PM 41.0 °F - 34.2 °F 77% 30.05 in 10.0 mi Calm Calm - N/A   Overcast
6:35 PM - - - N/A% 30.05 in 10.0 mi Calm Calm - N/A   Overcast
6:55 PM 41.0 °F - 34.5 °F 78% 30.06 in 10.0 mi Calm Calm - N/A   Overcast
9:55 PM 38.7 °F 36.3 °F 32.2 °F 78% 30.05 in 10.0 mi NNW 3.5 mph - N/A   Overcast
10:15 PM 38.5 °F 35.0 °F 31.8 °F 77% 30.05 in 10.0 mi NNW 4.6 mph - N/A   Overcast
10:35 PM 38.3 °F - 30.4 °F 73% 30.04 in 10.0 mi Calm Calm - N/A   Overcast
10:55 PM 38.1 °F - 29.8 °F 72% 30.04 in 10.0 mi Calm Calm - N/A   Overcast
11:15 PM 37.8 °F 35.3 °F 28.8 °F 70% 30.04 in 10.0 mi NNW 3.5 mph - N/A   Overcast
11:35 PM 37.6 °F - 28.4 °F 69% 30.07 in 7.0 mi Calm Calm - N/A Snow Light Snow
11:55 PM 34.7 °F 27.5 °F 29.5 °F 81% 30.08 in 2.5 mi WNW 9.2 mph 16.1 mph N/A   Overcast